sat.trackr.live / text

‹ back to catalog

PHASE 3B (AO-10)

NORAD 14129 · 1983-058B

PAYLOAD ACTIVE UNKNOWN

§ Identity

Operator
Country
GER
Launch date
1983-06-16
Launch site
FRGUI
Launch vehicle
Mass (kg)
RCS (m²)
1.01

Purposes: comms

External: N2YO · Heavens-Above · Gunter

§ Orbital elements

Epoch: 2026-09-20T01:00:59.779584Z

Period
699.47 min
Inclination
25.9788°
Eccentricity
0.5980330
Mean motion
2.05869937 rev/d
Perigee alt
4,114.0 km
Apogee alt
35,333.7 km
Semi-major
26,102.0 km
B*
0.0000e+0
RAAN
204.0605°
Arg perigee
141.6651°
Mean anomaly
281.5604°
Rev number
29,744

§ Raw data

PHASE 3B (AO-10)1 14129U 83058B   26263.04235856 -.00000060  00000+0  00000+0 0  99982 14129  25.9788 204.0605 5980330 141.6651 281.5604  2.05869937297448

JSON: /api/v1/satellites/14129 · /tle

For live sub-satellite position, see the globe view (requires WebGL).

§ Visibility from observer

Set your observer location to see the next 7 days of passes ≥ 10°. The values pass through the URL so the page stays shareable.

No JS? Fill the form by hand. The geolocation button needs JavaScript.

§ Radio — SatNOGS DB

ModeDescriptionDownlinkUplink
CW Beacon (unmodulated carrier) 145.810 MHz
CW Engineering Beacon 145.987 MHz
LSB Mode-B Transponder (inactive) 145.825 MHz–145.975 MHz 435.030 MHz–435.180 MHz

3 transmitters · refreshed weekly from db.satnogs.org